Regional Weather Roundup
Issued by NWS

Home | Current Version | Previous Version | Text Only | Print | Product List | Glossary Off
Versions: 1 2 3 4 5 6 7 8 9 10 11 12 13 14 15 16 17 18 19 20 21 22 23 24 25 26 27 28 29 30 31 32 33 34 35 36 37 38 39 40 41 42 43 44 45 46 47 48 49 50

000
ASUS44 KMEG 101700
RWRTN
TENNESSEE HOURLY STATE WEATHER ROUNDUP
NATIONAL WEATHER SERVICE MEMPHIS TN
1200 PM CDT THU JUL 10 2014

TNZ002-004-019-021-049-052-054-088>092-101800-
WEST TENNESSEE

CITY           SKY/WX    TMP DP  RH WIND       PRES   REMARKS
MEMPHIS INTL   PTSUNNY   87  64  46 N3        30.11S
NWS MEMPHIS      N/A     86 N/A N/A MISG        N/A
JACKSON        MOSUNNY   86  61  42 VRB3      30.11S
DYERSBURG      PTSUNNY   86  63  45 SW3       30.12R
LEXINGTON      SUNNY     82  63  51 NW3       30.11R
$$

TNZ008-025-027-028-033-062-065-066-101800-
NORTH MIDDLE TENNESSEE

CITY           SKY/WX    TMP DP  RH WIND       PRES   REMARKS
NASHVILLE      PTSUNNY   87  58  37 VRB3      30.11F
CLARKSVILLE    PTSUNNY   84  59  42 SW7       30.11R
COOKEVILLE     SUNNY     84  70  61 CALM      30.13S
CROSSVILLE     MOSUNNY   79  59  50 VRB3      30.17S
$$

TNZ061-075-076-078-094-096-097-101800-
SOUTH MIDDLE TENNESSEE

CITY           SKY/WX    TMP DP  RH WIND       PRES   REMARKS
TULLAHOMA      MOSUNNY   82  64  54 NE6       30.14S
WINCHESTER     MOSUNNY   82  70  65 VRB3      30.12S
MCMINNVILLE    SUNNY     82  64  54 CALM      30.13S
COLUMBIA       SUNNY     84  64  51 NE6       30.11R
$$

TNZ017-018-042-046-047-101800-
NORTHEAST TENNESSEE

CITY           SKY/WX    TMP DP  RH WIND       PRES   REMARKS
TRI CITIES     NOT AVBL
ELIZABETHTON   MOSUNNY   81  64  57 VRB6      30.13F
$$

TNZ012-013-036-069-073-074-101800-
CENTRAL EAST TENNESSEE

CITY           SKY/WX    TMP DP  RH WIND       PRES   REMARKS
KNOXVILLE      PTSUNNY   81  69  67 N6        30.11F
OAK RIDGE      MOSUNNY   80  68  66 VRB5      30.13F
$$

TNZ083-085-099-101800-
SOUTHEAST TENNESSEE

CITY           SKY/WX    TMP DP  RH WIND       PRES   REMARKS
CHATTANOOGA    PTSUNNY   82  68  62 CALM      30.11F
$$

SKY/WX REPORTED AS FAIR MEANS FEW OR NO CLOUDS BELOW
12 THOUSAND FEET.



USA.gov is the U.S. government's official web portal to all federal, state and local government web resources and services.